TimeCST,TemperatureF,Dew PointF,Humidity,Sea Level PressureIn,VisibilityMPH,Wind Direction,Wind SpeedMPH,Gust SpeedMPH,PrecipitationIn,Events,Conditions,WindDirDegrees,DateUTC
12:53 AM,45.0,33.1,63,30.12,10.0,SE,8.1,-,N/A,,Clear,140,2013-11-03 05:53:00
1:53 AM,44.1,34.0,68,30.12,10.0,SSE,6.9,-,N/A,,Clear,150,2013-11-03 06:53:00
1:53 AM,44.1,33.1,65,30.11,10.0,SSE,6.9,-,N/A,,Clear,160,2013-11-03 07:53:00
2:53 AM,43.0,33.1,68,30.10,10.0,SSE,5.8,-,N/A,,Clear,150,2013-11-03 08:53:00
3:53 AM,42.1,33.1,70,30.08,10.0,SE,5.8,-,N/A,,Clear,140,2013-11-03 09:53:00
4:53 AM,42.1,32.0,67,30.08,10.0,SSE,4.6,-,N/A,,Clear,160,2013-11-03 10:53:00
5:53 AM,41.0,32.0,70,30.07,10.0,SE,6.9,-,N/A,,Clear,130,2013-11-03 11:53:00
6:53 AM,39.9,33.1,77,30.07,10.0,SE,9.2,-,N/A,,Clear,140,2013-11-03 12:53:00
7:53 AM,44.1,34.0,68,30.06,10.0,SE,10.4,-,N/A,,Clear,130,2013-11-03 13:53:00
8:53 AM,51.1,35.1,54,30.07,10.0,SSE,16.1,-,N/A,,Clear,160,2013-11-03 14:53:00
9:53 AM,60.1,34.0,38,30.05,10.0,South,25.3,29.9,N/A,,Clear,180,2013-11-03 15:53:00
10:53 AM,64.0,33.1,31,30.00,10.0,SSE,28.8,35.7,N/A,,Clear,160,2013-11-03 16:53:00
11:53 AM,64.0,32.0,30,29.99,10.0,South,24.2,29.9,N/A,,Clear,170,2013-11-03 17:53:00
12:53 PM,64.9,32.0,29,29.96,10.0,South,23.0,29.9,N/A,,Clear,180,2013-11-03 18:53:00
1:53 PM,64.9,32.0,29,29.92,10.0,South,23.0,33.4,N/A,,Clear,180,2013-11-03 19:53:00
2:53 PM,64.0,33.1,31,29.91,10.0,South,20.7,28.8,N/A,,Clear,170,2013-11-03 20:53:00
3:53 PM,64.0,34.0,33,29.85,10.0,SSE,23.0,28.8,N/A,,Clear,150,2013-11-03 21:53:00
4:53 PM,62.1,35.1,37,29.86,10.0,SSE,18.4,-,N/A,,Clear,160,2013-11-03 22:53:00
5:53 PM,60.1,36.0,41,29.88,10.0,SSE,16.1,-,N/A,,Clear,150,2013-11-03 23:53:00
6:53 PM,59.0,37.0,44,29.89,10.0,SE,17.3,-,N/A,,Clear,140,2013-11-04 00:53:00
7:53 PM,59.0,37.9,46,29.90,10.0,SSE,15.0,-,N/A,,Clear,150,2013-11-04 01:53:00
8:53 PM,59.0,39.9,49,29.88,10.0,SSE,18.4,-,0.00,Rain,Light Rain,150,2013-11-04 02:53:00
9:53 PM,57.9,42.1,56,29.89,10.0,South,16.1,-,0.00,Rain,Light Rain,170,2013-11-04 03:53:00
10:53 PM,54.0,46.0,75,29.88,10.0,SSE,10.4,-,0.00,,Overcast,150,2013-11-04 04:53:00